Home   Weather   Norrköping   Past weeks

Flag for Sweden Past Weather in Norrköping, Sweden — Yesterday and Last 2 Weeks

Now
57 °F

Clear.


Feels Like: 54 °F
Forecast: 52 / 62 °F
Wind: 16 mph from West

Location: Norrkoping Airport

Current Time: Sep 28, 2016 at 9:00:54 PM

Latest Report: Sep 28, 2016 at 8:20 PM


Visibility: 10 mi

Pressure: 29.65 "Hg

Humidity: 72%

Dew Point: 48 °F

Location of NorrköpingLocation

Past Weather in Norrköping — Graph

°F

Norrköping Temperature Yesterday

Maximum temperature yesterday: 66 °F (at 1:20 PM)
Minimum temperature yesterday: 43 °F (at 3:20 AM)
Average temperature yesterday: 55 °F

High & Low Weather Summary for the Past Weeks

 TemperatureHumidityPressure
High77 °F (Sep 15, 1:50 PM)100% (Sep 14, 5:20 AM)30.30 "Hg (Sep 14, 5:20 AM)
Low39 °F (Sep 17, 6:20 AM)39% (Sep 17, 3:50 PM)29.59 "Hg (Sep 28, 2:20 PM)
Average56 °F78%30.13 "Hg
* Reported Sep 13 7:20 PM — Sep 28 7:50 PM, Norrköping, Weather by CustomWeather, © 2016

Note: Actual official high and low records may vary slightly from our data, if they occured in-between our weather recording intervals... More about our weather records

Advertising

Norrköping Weather History for the Previous 24 Hours

Scroll right to see more
 ConditionsComfort  
Time TempWeatherWind HumidityBarometerVisibility
7:50 PM
Wed, Sep 28
59 °FPassing clouds.14 mph68%29.65 "HgN/A
7:20 PM59 °FPassing clouds.10 mph68%29.65 "HgN/A
6:50 PM59 °FClear.15 mph68%29.62 "Hg10 mi
6:20 PM59 °FPassing clouds.17 mph68%29.59 "HgN/A
5:50 PM61 °FPassing clouds.16 mph63%29.59 "HgN/A
5:20 PM61 °FSunny.16 mph63%29.59 "Hg10 mi
4:50 PM63 °FSunny.22 mph56%29.59 "Hg10 mi
4:20 PM63 °FSunny.18 mph59%29.59 "Hg10 mi
3:50 PM63 °FScattered clouds.20 mph64%29.59 "HgN/A
3:20 PM63 °FScattered clouds.20 mph64%29.59 "HgN/A
2:50 PM63 °FScattered clouds.21 mph64%29.59 "HgN/A
2:20 PM63 °FScattered clouds.21 mph64%29.59 "HgN/A
1:50 PM61 °FScattered clouds.22 mph72%29.62 "HgN/A
1:20 PM61 °FScattered clouds.17 mph72%29.62 "HgN/A
12:50 PM59 °FPartly sunny.17 mph77%29.62 "HgN/A
12:20 PM59 °FPartly sunny.15 mph82%29.62 "HgN/A
11:50 AM59 °FScattered clouds.12 mph88%29.62 "HgN/A
11:20 AM59 °FScattered clouds.9 mph88%29.65 "HgN/A
10:50 AM57 °FPassing clouds.7 mph94%29.65 "HgN/A
10:20 AM57 °FLight rain. Partly sunny.9 mph94%29.65 "HgN/A
9:50 AM55 °FDrizzle. Broken clouds.9 mph94%29.68 "HgN/A
9:20 AM55 °FScattered clouds.10 mph94%29.68 "Hg6 mi
8:50 AM55 °FLight rain. Passing clouds.10 mph94%29.68 "HgN/A
8:20 AM54 °FScattered clouds.10 mph100%29.71 "HgN/A
7:50 AM54 °FLight rain. Scattered clouds.10 mph100%29.74 "HgN/A
7:20 AM54 °FLight rain. Scattered clouds.10 mph100%29.74 "HgN/A
6:50 AM54 °FLight rain. Passing clouds.9 mph100%29.77 "HgN/A
6:20 AM55 °FLight rain. Partly cloudy.13 mph88%29.80 "HgN/A
5:50 AM54 °FRain. Overcast.12 mph94%29.83 "HgN/A
5:20 AM55 °FLight rain. Mostly cloudy.13 mph88%29.83 "HgN/A
4:50 AM55 °FRain. Mostly cloudy.10 mph88%29.86 "HgN/A
4:20 AM55 °FLight rain. Passing clouds.9 mph88%29.86 "HgN/A
3:50 AM57 °FPassing clouds.10 mph77%29.89 "HgN/A
3:20 AM57 °FPassing clouds.10 mph77%29.89 "HgN/A
2:50 AM57 °FPassing clouds.10 mph77%29.92 "HgN/A
2:20 AM57 °FPassing clouds.12 mph72%29.95 "HgN/A
1:50 AM57 °FPassing clouds.10 mph72%29.95 "HgN/A
1:20 AM57 °FPassing clouds.10 mph72%29.98 "HgN/A
12:50 AM57 °FPartly cloudy.8 mph72%30.01 "HgN/A
12:20 AM57 °FPassing clouds.9 mph72%30.01 "HgN/A
11:50 PM
Tue, Sep 27
57 °FPassing clouds.8 mph72%30.04 "HgN/A
11:20 PM57 °FPassing clouds.10 mph67%30.04 "HgN/A
10:50 PM57 °FPassing clouds.8 mph67%30.07 "HgN/A
10:20 PM55 °FPassing clouds.7 mph72%30.09 "HgN/A
9:50 PM55 °FClear.7 mph72%30.09 "Hg10 mi
9:20 PM57 °FClear.8 mph72%30.12 "Hg10 mi
Weather by CustomWeather, © 2016

See weather overviewHow to use our weather pages